[[{"header":{"parameterUnit":"m.s-1","parameterCategory":2,"la1":30.2991,"la2":30.254,"lo1":-89.0895,"lo2":-89.0444,"dy":0.0017,"dx":0.0017,"nx":28,"ny":28,"refTime":"2025-01-25T09:00:00:Z","depth":"0","parameterNumber":2,"parameterNumberName":"U-component_of_CURRENTS"},"data":[0,0,0,0,0,0,0,0,0,0,0,0,0,0,0,0,0,0,0,0,0,0,0,0,0,0,0,0,0,0,0,0,0,0,0,0,0,0,0,0,0,0,0,0,0,0,0,0,0,0,0,0,0,0,0,0,0,0,0.4165,0.4166,0,0.4191,0.4191,0.4191,0.4162,0.4161,0.4161,0.416,0.4132,0.4131,0.4131,0,0,0,0,0,0,0,0,0,0,0,0,0,0.4061,0.4062,0.4165,0.4166,0.4167,0.4191,0.4191,0.419,0.4162,0.4161,0.4161,0.416,0.4132,0.4131,0.4131,0,0,0,0,0,0,0,0,0,0,0,0,0,0.4092,0.4063,0.4165,0.4161,0.4161,0.4191,0.4191,0.419,0.4162,0.4161,0.416,0.416,0.4132,0.4131,0.4131,0.4141,0,0,0.4129,0.4129,0,0,0,0,0,0,0,0,0.409,0.4095,0.416,0.4161,0.4162,0.4179,0.4144,0.4174,0.4162,0.4154,0.416,0.416,0.4148,0.4146,0.4143,0.4139,0.4138,0.4129,0.4129,0.4129,0.4129,0,0,0,0,0,0,0,0.4088,0.4093,0.4168,0.4162,0.4162,0.4148,0.4151,0.4149,0.4147,0.4154,0.4154,0.4169,0.4146,0.4143,0.4142,0.4138,0.4129,0.4129,0.4128,0.4128,0.4173,0.4175,0,0,0,0,0,0,0.4102,0.4092,0.4167,0.4169,0.4132,0.4151,0.4154,0.4168,0.4149,0.4148,0.417,0.4168,0.4144,0.4142,0.4141,0.4182,0.4129,0.4128,0.4128,0.4172,0.4174,0.4175,0,0,0,0,0,0,0.4099,0.4108,0.4166,0.4136,0.4144,0.4155,0.417,0.4169,0.4177,0.4162,0.4158,0.4181,0.4144,0.4141,0.4148,0.4179,0.4128,0.4128,0.417,0.4172,0.4175,0.4245,0,0,0,0,0,0,0.4096,0.4107,0.4117,0.4138,0.4146,0.4199,0.4171,0.417,0.419,0.4188,0.417,0.4166,0.4143,0.4149,0.4147,0.4178,0.4127,0.4168,0.4171,0.4174,0.424,0.4249,0.4256,0,0,0,0,0,0.4092,0.4112,0.4117,0.4126,0.4161,0.4201,0.4203,0.4203,0.4192,0.4205,0.4188,0.4167,0.4166,0.415,0.4147,0.4178,0.4167,0.417,0.4174,0.4237,0.4247,0.4256,0,0,0,0,0,0,0.4069,0.4112,0.4118,0.4148,0.4181,0.4199,0.4213,0.4216,0.4213,0.4205,0.4182,0.4177,0.42,0.418,0.4163,0.4201,0.4166,0.4169,0.4215,0.4224,0.4232,0.4293,0.4127,0,0,0,0,0,0.4073,0.4097,0.4139,0.4163,0.4184,0.4201,0.4216,0.4219,0.4226,0.4224,0.4211,0.4202,0.4213,0.421,0.421,0.4225,0.4296,0.4246,0.4254,0.4261,0.431,0.4464,0.4492,0.4187,0.4186,0.4186,0,0,0.4071,0.4099,0.4112,0.4161,0.4181,0.4207,0.4206,0.4238,0.4256,0.4222,0.4231,0.4232,0.4225,0.4246,0.4254,0.423,0.4378,0.4265,0.4271,0.4318,0.4471,0.4501,0.4528,0.4189,0.4188,0.4188,0,0,0.4072,0.4109,0.4122,0.4155,0.4199,0.4219,0.4236,0.4263,0.4274,0.4282,0.428,0.4315,0.4285,0.4319,0.4324,0.4382,0.4422,0.4364,0.4448,0.4595,0.4623,0.4648,0.4756,0.479,0.4361,0.4361,0.4361,0,0.4062,0.4096,0.4134,0.4156,0.4193,0.4228,0.4258,0.4277,0.4298,0.4338,0.4287,0.4356,0.4331,0.443,0.4435,0.4406,0.4487,0.4406,0.4611,0.4637,0.4663,0.4767,0.4804,0.4364,0.4364,0.4364,0.4363,0,0.4064,0.4102,0.4122,0.4163,0.4203,0.4245,0.4291,0.433,0.434,0.4368,0.4459,0.4457,0.4519,0.4501,0.4471,0.4641,0.464,0.4611,0.4594,0.4699,0.48,0.4838,0.437,0.4369,0.4367,0.4366,0,0,0.4025,0.4106,0.4111,0.4182,0.4221,0.429,0.4318,0.4409,0.4498,0.4499,0.4626,0.463,0.4679,0.4695,0.4701,0.4802,0.5007,0.4781,0.4786,0.4902,0.5335,0.5166,0.5191,0.5027,0.5034,0.504,0.5327,0,0.4021,0.411,0.4112,0.4217,0.4305,0.4343,0.4395,0.4478,0.4535,0.4662,0.4719,0.4817,0.4741,0.4801,0.49,0.4992,0.5115,0.4932,0.5205,0.5214,0.5065,0.5232,0.5054,0.5281,0.5364,0.5371,0.5375,0,0.4028,0.4112,0.4208,0.4362,0.4393,0.4435,0.4613,0.4657,0.4805,0.4851,0.4969,0.5017,0.5177,0.5094,0.5347,0.524,0.5316,0.5366,0.5378,0.5236,0.5117,0.5194,0.5347,0.5161,0.5434,0.5429,0.5425,0,0.4116,0.4198,0.4307,0.4348,0.4483,0.4543,0.4611,0.4737,0.4783,0.5014,0.5062,0.5279,0.536,0.5529,0.5565,0.551,0.5831,0.5767,0.5701,0.5688,0.5599,0.5564,0.5622,0.6004,0.6003,0.6002,0.6001,0,0.4186,0.4292,0.4373,0.4467,0.4578,0.4661,0.4766,0.4872,0.4986,0.5029,0.5189,0.5255,0.5473,0.5616,0.5699,0.5802,0.5949,0.5783,0.5782,0.5607,0.5571,0.5449,0.5367,0.6013,0.601,0.6008,0.6007,0,0.431,0.4354,0.4487,0.4611,0.4634,0.4737,0.4766,0.4819,0.4968,0.5037,0.5099,0.5292,0.5476,0.5651,0.592,0.5917,0.5904,0.6067,0.5814,0.5775,0.5483,0.5412,0.5374,0.5209,0.6094,0.6092,0.609,0,0.44,0.4473,0.456,0.4541,0.4585,0.4673,0.4661,0.4798,0.481,0.4986,0.5004,0.5236,0.5323,0.5672,0.5795,0.6005,0.5818,0.5909,0.5758,0.5495,0.5421,0.5213,0.5061,0.5684,0.5679,0.5675,0.5671,0,0.4496,0.4488,0.4537,0.4516,0.4503,0.4484,0.451,0.452,0.4628,0.4713,0.481,0.4935,0.5244,0.5385,0.5648,0.573,0.5602,0.5824,0.5673,0.5219,0.4892,0.4717,0.5433,0.5636,0.5639,0.5642,0.5644,0.5645,0.446,0.4463,0.4427,0.4394,0.4348,0.4261,0.4213,0.4231,0.4257,0.4345,0.4551,0.4731,0.5037,0.5382,0.5408,0.5329,0.5316,0.5219,0.52,0.5046,0.4735,0.5324,0.5416,0.5418,0.542,0.5421,0.5423,0,0.436,0.4326,0.4272,0.4179,0.4056,0.411,0.4037,0.3962,0.3938,0.4139,0.4257,0.4567,0.4723,0.4924,0.4952,0.4769,0.4601,0.4633,0.4352,0.4267,0.4937,0.4758,0.4561,0.4562,0.4562,0.4562,0.4562,0.4562,0.4277,0.4179,0.4145,0.3891,0.3822,0.3626,0.3572,0.3527,0.363,0.373,0.3924,0.4174,0.4451,0.4605,0.4425,0.4322,0.3969,0.3823,0.3772,0.4281,0.4333,0.4383,0.4194,0.3883,0.3882,0.2946,0.2939,0.2934]},{"header":{"parameterUnit":"m.s-1","parameterCategory":2,"la1":30.2991,"la2":30.254,"lo1":-89.0895,"lo2":-89.0444,"dy":0.0017,"dx":0.0017,"nx":28,"ny":28,"refTime":"2025-01-25T09:00:00:Z","depth":"0","parameterNumber":3,"parameterNumberName":"V-component_of_CURRENTS"},"data":[0,0,0,0,0,0,0,0,0,0,0,0,0,0,0,0,0,0,0,0,0,0,0,0,0,0,0,0,0,0,0,0,0,0,0,0,0,0,0,0,0,0,0,0,0,0,0,0,0,0,0,0,0,0,0,0,0,0,0.0048,0.0047,0,0.0003,0.0003,0.0002,-0.0054,-0.0054,-0.0055,-0.0056,-0.0143,-0.0145,-0.0146,0,0,0,0,0,0,0,0,0,0,0,0,0,0.0049,0.005,0.0048,0.0047,0.0047,0.0003,0.0003,0.0002,-0.0053,-0.0054,-0.0055,-0.0056,-0.0143,-0.0145,-0.0147,0,0,0,0,0,0,0,0,0,0,0,0,0,0.003,0.005,0.0048,0.0015,0.0012,0.0004,0.0003,0.0002,-0.0053,-0.0054,-0.0055,-0.0057,-0.0142,-0.0144,-0.0147,-0.0139,0,0,-0.0154,-0.0155,0,0,0,0,0,0,0,0,0.0031,0.003,0.002,0.0017,0.0014,-0.0019,-0.0029,-0.0047,-0.0053,-0.003,-0.0056,-0.0057,-0.0104,-0.011,-0.0117,-0.0143,-0.0147,-0.0154,-0.0156,-0.0157,-0.0158,0,0,0,0,0,0,0,0.0033,0.0031,0.0028,0.002,0.0016,-0.0009,-0.0013,-0.0033,-0.0062,-0.0032,-0.0036,-0.0038,-0.0106,-0.0114,-0.012,-0.0148,-0.0154,-0.0157,-0.0158,-0.0159,-0.0176,-0.0175,0,0,0,0,0,0,0.0044,0.0033,0.003,0.0027,0.0021,-0.0008,-0.0012,-0.0009,-0.0061,-0.0069,-0.0037,-0.0041,-0.011,-0.0117,-0.0123,-0.0095,-0.0157,-0.0159,-0.0161,-0.0177,-0.0176,-0.0175,0,0,0,0,0,0,0.0045,0.0045,0.0032,0.003,0.0026,-0.0006,-0.0002,-0.0009,-0.0019,-0.0064,-0.0074,-0.004,-0.0111,-0.0119,-0.0133,-0.01,-0.016,-0.0163,-0.0178,-0.0177,-0.0175,-0.0054,0,0,0,0,0,0,0.0045,0.0045,0.0051,0.0031,0.0027,0.0042,-0.0001,-0.0009,-0.0018,-0.0023,-0.007,-0.0079,-0.0112,-0.0129,-0.0136,-0.0105,-0.0164,-0.018,-0.0178,-0.0176,-0.006,-0.0049,-0.004,0,0,0,0,0,0.0045,0.0068,0.0052,0.0051,0.0037,0.0043,0.0039,0.001,-0.0017,-0.0007,-0.0044,-0.0078,-0.0122,-0.013,-0.0138,-0.0107,-0.018,-0.0178,-0.0176,-0.0064,-0.0051,-0.004,0,0,0,0,0,0,0.0072,0.0064,0.0046,0.0064,0.0058,0.0034,0.0042,0.0017,-0.0004,-0.0014,-0.0065,-0.0075,-0.0078,-0.011,-0.0118,-0.0108,-0.0157,-0.0156,-0.0069,-0.0057,-0.0048,0.002,-0.0167,0,0,0,0,0,0.0081,0.0095,0.008,0.0095,0.0096,0.0067,0.0064,0.0045,0.0024,0.0012,-0.002,-0.0054,-0.0073,-0.008,-0.0107,-0.0096,-0.0075,-0.0083,-0.0072,-0.0064,-0.0015,0.0028,0.0047,-0.0167,-0.0167,-0.0167,0,0,0.0094,0.0093,0.0099,0.0101,0.0092,0.0114,0.0063,0.0068,0.0088,0.0007,0.0021,-0.0024,-0.0066,-0.0057,-0.006,-0.0078,0.0011,-0.0061,-0.0053,-0.0008,0.0032,0.0054,0.0073,-0.0166,-0.0166,-0.0166,0,0,0.0145,0.0129,0.0163,0.0166,0.0163,0.0148,0.0153,0.0135,0.0129,0.0131,0.008,0.007,0.0028,0.0025,0.0013,0.0065,0.0054,0.0037,0.0155,0.0195,0.0215,0.0232,0.0305,0.0328,0.0052,0.0052,0.0052,0,0.0161,0.0206,0.0174,0.0211,0.023,0.017,0.0219,0.0206,0.0184,0.0222,0.0149,0.0154,0.008,0.015,0.0139,0.0094,0.0123,0.0114,0.0213,0.023,0.0246,0.0317,0.0341,0.0058,0.0057,0.0057,0.0056,0,0.0243,0.0276,0.03,0.0328,0.0337,0.037,0.0351,0.037,0.0341,0.0344,0.0394,0.0314,0.0344,0.0288,0.0213,0.03,0.0288,0.0215,0.0193,0.0276,0.0344,0.0367,0.0067,0.0064,0.0063,0.0061,0,0,0.0299,0.0352,0.036,0.0433,0.0409,0.046,0.048,0.0541,0.0655,0.0574,0.0723,0.0607,0.0596,0.0581,0.0506,0.05,0.0586,0.0403,0.0402,0.0498,0.0716,0.0621,0.0636,0.0527,0.0531,0.0535,0.0727,0,0.0383,0.0505,0.0484,0.0614,0.069,0.0659,0.0729,0.0767,0.0789,0.0914,0.0838,0.0929,0.0702,0.0756,0.0704,0.063,0.0648,0.0544,0.0604,0.0608,0.053,0.0659,0.057,0.0726,0.0749,0.0753,0.0756,0,0.0489,0.0563,0.0706,0.0851,0.0886,0.0959,0.113,0.1183,0.1285,0.1318,0.1355,0.1312,0.1311,0.1108,0.104,0.0986,0.0872,0.0783,0.0787,0.0681,0.0554,0.064,0.0765,0.0461,0.079,0.0787,0.0785,0,0.0638,0.0741,0.0885,0.0921,0.1045,0.1153,0.123,0.1341,0.1481,0.1624,0.1761,0.1711,0.1771,0.1589,0.1318,0.1219,0.1251,0.1105,0.0936,0.093,0.0861,0.084,0.0719,0.1101,0.1101,0.11,0.11,0,0.0788,0.0929,0.0997,0.1109,0.1346,0.1357,0.164,0.1721,0.1901,0.2117,0.2017,0.2182,0.1887,0.1824,0.152,0.1312,0.1419,0.1021,0.0987,0.0897,0.0878,0.061,0.0447,0.1108,0.1106,0.1105,0.1103,0,0.1011,0.1025,0.1236,0.1382,0.1449,0.1649,0.1901,0.2103,0.2241,0.253,0.2597,0.2614,0.2522,0.2212,0.1978,0.1638,0.1236,0.1307,0.1228,0.1178,0.0674,0.0523,0.0446,0.0326,0.1193,0.1192,0.1191,0,0.1176,0.1281,0.1464,0.158,0.1682,0.1933,0.2107,0.228,0.2485,0.2775,0.2938,0.2976,0.2984,0.2629,0.2061,0.163,0.1301,0.1254,0.1008,0.0691,0.05,0.0386,0.0283,0.0991,0.0989,0.0987,0.0985,0,0.1455,0.1487,0.162,0.1833,0.2033,0.2275,0.2533,0.2746,0.2945,0.3178,0.3412,0.346,0.3144,0.2658,0.207,0.1706,0.101,0.1198,0.0902,0.0378,0.0225,0.0078,0.0839,0.0968,0.0969,0.0971,0.0972,0.0972,0.1627,0.1742,0.1827,0.2057,0.2273,0.2532,0.2749,0.2991,0.3303,0.3615,0.3683,0.3804,0.3125,0.2304,0.1829,0.085,0.091,0.0504,0.0376,0.0315,0.0092,0.082,0.0856,0.0857,0.0858,0.0859,0.086,0,0.172,0.18,0.2023,0.2239,0.2483,0.2579,0.2946,0.3142,0.3449,0.3758,0.3937,0.3673,0.2844,0.2014,0.07,0.0097,-0.0115,-0.0212,-0.0411,-0.0456,0.0227,0.0097,-0.007,-0.007,-0.0069,-0.0069,-0.0069,-0.0068,0.1741,0.1874,0.1969,0.2316,0.2507,0.2808,0.3006,0.3303,0.3578,0.386,0.3955,0.4026,0.3263,0.1079,-0.0359,-0.0635,-0.104,-0.1123,-0.1246,-0.0856,-0.0801,-0.0748,-0.0911,-0.1287,-0.1288,-0.1909,-0.1916,-0.1921]}],[{"header":{"parameterUnit":"m.s-1","parameterCategory":2,"la1":30.2991,"la2":30.254,"lo1":-89.0895,"lo2":-89.0444,"dy":0.0017,"dx":0.0017,"nx":28,"ny":28,"refTime":"2025-01-25T09:00:00:Z","depth":"2","parameterNumber":2,"parameterNumberName":"U-component_of_CURRENTS"},"data":[0,0,0,0,0,0,0,0,0,0,0,0,0,0,0,0,0,0,0,0,0,0,0,0,0,0,0,0,0,0,0,0,0,0,0,0,0,0,0,0,0,0,0,0,0,0,0,0,0,0,0,0,0,0,0,0,0,0,0.295,0.2951,0,0.3016,0.3017,0.3018,0.305,0.305,0.305,0.305,0.3064,0.3064,0.3064,0,0,0,0,0,0,0,0,0,0,0,0,0,0.288,0.2881,0.295,0.2951,0.2952,0.3016,0.3017,0.3018,0.305,0.305,0.305,0.305,0.3064,0.3064,0.3064,0,0,0,0,0,0,0,0,0,0,0,0,0,0.2924,0.2881,0.295,0.2976,0.2979,0.3016,0.3017,0.3018,0.305,0.305,0.305,0.305,0.3064,0.3064,0.3065,0.3067,0,0,0.3066,0.3066,0,0,0,0,0,0,0,0,0.2921,0.2927,0.2971,0.2974,0.2977,0.3025,0.2998,0.3032,0.305,0.3022,0.305,0.305,0.3046,0.3048,0.3061,0.3067,0.3068,0.3066,0.3066,0.3067,0.3067,0,0,0,0,0,0,0,0.2918,0.2924,0.2976,0.2972,0.2976,0.2994,0.3,0.3005,0.3032,0.3025,0.3027,0.3035,0.3048,0.306,0.3061,0.3068,0.3066,0.3067,0.3067,0.3067,0.3151,0.3153,0,0,0,0,0,0,0.291,0.2921,0.2973,0.2978,0.295,0.2995,0.3002,0.3009,0.3033,0.3037,0.3035,0.3037,0.3059,0.306,0.3062,0.3118,0.3067,0.3067,0.3067,0.3149,0.3151,0.3153,0,0,0,0,0,0,0.2908,0.2914,0.2971,0.2951,0.296,0.2996,0.3004,0.3011,0.3035,0.3042,0.3045,0.3054,0.3059,0.3061,0.3089,0.3117,0.3067,0.3068,0.3147,0.315,0.3152,0.3197,0,0,0,0,0,0,0.2906,0.2913,0.2924,0.2951,0.2961,0.3004,0.3005,0.3012,0.3039,0.3042,0.3059,0.306,0.3059,0.3089,0.309,0.3117,0.3068,0.3144,0.3148,0.3151,0.3194,0.3201,0.3208,0,0,0,0,0,0.2903,0.2917,0.2924,0.2931,0.2971,0.3005,0.3013,0.3038,0.304,0.3058,0.3075,0.306,0.3113,0.3091,0.3092,0.3119,0.3143,0.3147,0.3151,0.319,0.32,0.3208,0,0,0,0,0,0,0.2885,0.2922,0.293,0.2952,0.2981,0.3011,0.3034,0.3044,0.3072,0.308,0.3078,0.3081,0.3121,0.3115,0.3091,0.3157,0.3127,0.3132,0.3157,0.3166,0.3173,0.3185,0.3069,0,0,0,0,0,0.2887,0.2911,0.2942,0.296,0.2979,0.3007,0.3026,0.3044,0.3069,0.3082,0.3096,0.3115,0.3139,0.3147,0.3168,0.3194,0.3223,0.3216,0.3223,0.3229,0.3242,0.3341,0.3358,0.3168,0.3167,0.3167,0,0,0.2886,0.2908,0.2923,0.296,0.2986,0.3013,0.3019,0.3057,0.3081,0.3078,0.3121,0.3142,0.3154,0.3195,0.3211,0.3192,0.3295,0.3235,0.324,0.325,0.3347,0.3366,0.3382,0.317,0.317,0.3169,0,0,0.2888,0.2917,0.2937,0.2965,0.3009,0.303,0.3041,0.3083,0.311,0.315,0.3162,0.3205,0.3227,0.3255,0.3266,0.3325,0.3336,0.3329,0.3369,0.3464,0.3481,0.3496,0.3537,0.3556,0.3327,0.3327,0.3327,0,0.2886,0.2909,0.2947,0.2971,0.3001,0.3035,0.3063,0.3093,0.3139,0.3183,0.317,0.3261,0.326,0.3327,0.3345,0.3342,0.3385,0.3328,0.3474,0.349,0.3505,0.3544,0.3564,0.333,0.3329,0.3329,0.3329,0,0.2894,0.2923,0.2941,0.2983,0.3021,0.3055,0.3102,0.3149,0.3183,0.3225,0.3313,0.3331,0.3395,0.3394,0.3379,0.3484,0.3475,0.3476,0.345,0.3527,0.3563,0.3583,0.3334,0.3333,0.3332,0.3331,0,0,0.2865,0.2934,0.294,0.2969,0.3036,0.3065,0.3129,0.3207,0.3278,0.3322,0.342,0.345,0.3491,0.3507,0.3511,0.3569,0.3686,0.3564,0.3568,0.3601,0.3877,0.3769,0.378,0.3725,0.3729,0.3733,0.3852,0,0.2861,0.2905,0.2945,0.2996,0.3031,0.3101,0.3165,0.3247,0.3327,0.3433,0.3485,0.3571,0.3525,0.3571,0.3628,0.3694,0.3745,0.3652,0.3801,0.3804,0.3698,0.3803,0.35,0.3574,0.3872,0.3875,0.3877,0,0.2854,0.2889,0.2936,0.3031,0.3056,0.3095,0.3236,0.3305,0.3462,0.3535,0.3641,0.3692,0.3791,0.374,0.3885,0.3836,0.386,0.3884,0.389,0.3791,0.3736,0.3551,0.3599,0.391,0.3908,0.3905,0.3903,0,0.2815,0.2888,0.2927,0.2954,0.3059,0.3113,0.3191,0.3346,0.3449,0.3623,0.3724,0.3839,0.3932,0.3994,0.4017,0.3988,0.4161,0.4135,0.4049,0.404,0.3811,0.3774,0.4237,0.4237,0.4236,0.4236,0.4236,0,0.2794,0.2833,0.2915,0.2931,0.3014,0.311,0.3233,0.3342,0.3533,0.3655,0.3784,0.3883,0.401,0.4101,0.4095,0.4132,0.4234,0.4082,0.4085,0.3813,0.3777,0.4089,0.407,0.424,0.4239,0.4239,0.4238,0,0.2752,0.2801,0.2858,0.2958,0.2993,0.3069,0.3248,0.3342,0.3541,0.371,0.3773,0.3987,0.4105,0.4174,0.4289,0.4241,0.427,0.4239,0.388,0.3839,0.4064,0.4046,0.4204,0.4201,0.4199,0.4198,0.4196,0,0.2733,0.2749,0.2851,0.2882,0.2926,0.3043,0.3116,0.3323,0.3417,0.3726,0.3781,0.4,0.4065,0.421,0.4179,0.4182,0.4241,0.3893,0.378,0.4084,0.4072,0.4057,0.4042,0.3486,0.3479,0.3473,0.3468,0,0.2683,0.2725,0.2755,0.2814,0.2877,0.2967,0.308,0.3147,0.3377,0.3526,0.3691,0.3795,0.397,0.3862,0.3904,0.385,0.3874,0.3776,0.4238,0.3533,0.3415,0.34,0.3408,0.3417,0.3422,0.3426,0.3428,0.3431,0.2632,0.2651,0.2673,0.2729,0.2788,0.2829,0.2847,0.2958,0.3073,0.3223,0.3422,0.349,0.359,0.3509,0.3408,0.3362,0.362,0.3462,0.3477,0.3499,0.3387,0.3272,0.3223,0.3226,0.323,0.3233,0.3235,0,0.254,0.2569,0.2586,0.2638,0.2627,0.2714,0.2762,0.272,0.2742,0.2934,0.3039,0.2856,0.2842,0.2947,0.2806,0.282,0.2765,0.2708,0.261,0.2665,0.2714,0.2557,0.2175,0.2172,0.2168,0.2165,0,0,0.249,0.2448,0.2451,0.2418,0.246,0.2406,0.2379,0.2347,0.2398,0.2371,0.2433,0.2683,0.2854,0.2457,0.2431,0.2278,0.2439,0.2191,0.3051,0.2991,0.3033,0.3174,0.2999,0,0,0,0,0]},{"header":{"parameterUnit":"m.s-1","parameterCategory":2,"la1":30.2991,"la2":30.254,"lo1":-89.0895,"lo2":-89.0444,"dy":0.0017,"dx":0.0017,"nx":28,"ny":28,"refTime":"2025-01-25T09:00:00:Z","depth":"2","parameterNumber":3,"parameterNumberName":"V-component_of_CURRENTS"},"data":[0,0,0,0,0,0,0,0,0,0,0,0,0,0,0,0,0,0,0,0,0,0,0,0,0,0,0,0,0,0,0,0,0,0,0,0,0,0,0,0,0,0,0,0,0,0,0,0,0,0,0,0,0,0,0,0,0,0,0.0158,0.0157,0,0.0105,0.0104,0.0103,0.0059,0.0059,0.0059,0.0058,-0.0014,-0.0016,-0.0018,0,0,0,0,0,0,0,0,0,0,0,0,0,0.0156,0.0157,0.0158,0.0157,0.0157,0.0105,0.0104,0.0103,0.0059,0.0059,0.0059,0.0058,-0.0014,-0.0016,-0.0018,0,0,0,0,0,0,0,0,0,0,0,0,0,0.0134,0.0157,0.0158,0.013,0.0127,0.0105,0.0104,0.0103,0.0059,0.0059,0.0059,0.0058,-0.0013,-0.0016,-0.0018,-0.0024,0,0,-0.0026,-0.0027,0,0,0,0,0,0,0,0,0.0136,0.0134,0.0135,0.0132,0.0129,0.009,0.0077,0.006,0.006,0.0083,0.0058,0.0058,0.002,0.0015,0.0004,-0.0028,-0.0031,-0.0026,-0.0027,-0.0029,-0.0029,0,0,0,0,0,0,0,0.0137,0.0136,0.0135,0.0134,0.0131,0.0098,0.0095,0.0073,0.0053,0.0081,0.0078,0.0075,0.0018,0.0006,0.0002,-0.0032,-0.0026,-0.0028,-0.003,-0.0031,-0.008,-0.008,0,0,0,0,0,0,0.0151,0.0138,0.0137,0.0134,0.0133,0.0099,0.0095,0.0101,0.0054,0.0047,0.0076,0.0074,0.0011,0.0004,-0.0001,0.0002,-0.0029,-0.0031,-0.0032,-0.008,-0.008,-0.008,0,0,0,0,0,0,0.0152,0.0152,0.0139,0.0135,0.0131,0.01,0.0107,0.01,0.0091,0.005,0.0042,0.0074,0.001,0.0002,-0.0014,-0.0002,-0.0032,-0.0034,-0.0081,-0.008,-0.008,-0.0001,0,0,0,0,0,0,0.0152,0.0153,0.016,0.0137,0.0132,0.0137,0.0107,0.01,0.0091,0.0088,0.0046,0.0038,0.0009,-0.001,-0.0017,-0.0006,-0.0036,-0.0081,-0.008,-0.008,-0.0004,0.0002,0.0007,0,0,0,0,0,0.0152,0.0173,0.0161,0.016,0.0144,0.0138,0.0133,0.0106,0.0092,0.0095,0.0065,0.004,-0.0013,-0.0012,-0.002,-0.0009,-0.0081,-0.0081,-0.008,-0.0006,0.0001,0.0007,0,0,0,0,0,0,0.0177,0.017,0.0156,0.0173,0.0159,0.0131,0.0132,0.0114,0.0092,0.0088,0.0046,0.0037,0.0024,-0.0004,-0.0002,-0.0025,-0.0053,-0.0054,0.0006,0.0012,0.0018,0.0041,-0.0038,0,0,0,0,0,0.0186,0.0198,0.0181,0.0193,0.019,0.0161,0.0154,0.0138,0.0116,0.0106,0.0077,0.0044,0.0019,0.0008,-0.002,-0.0027,-0.0064,-0.0028,-0.0023,-0.0018,-0.0006,-0.0049,-0.0046,-0.0079,-0.0079,-0.0079,0,0,0.0199,0.0196,0.0202,0.0198,0.0184,0.0193,0.0155,0.0154,0.016,0.0102,0.0101,0.0063,0.0021,0.001,0.0002,-0.001,-0.0031,-0.0018,-0.0013,-0.0003,-0.0049,-0.0045,-0.0042,-0.0078,-0.0078,-0.0079,0,0,0.0233,0.0228,0.0249,0.0244,0.0233,0.0218,0.0222,0.0199,0.0188,0.0179,0.0139,0.0112,0.0075,0.0049,0.0031,0.0049,-0.0002,0.0036,0.0085,0.0043,0.0046,0.0048,-0.0001,-0.0004,0.004,0.004,0.004,0,0.0248,0.0273,0.0253,0.0271,0.0276,0.0236,0.026,0.0246,0.0219,0.0218,0.019,0.0134,0.0095,0.0086,0.0088,0.0063,0.0027,0.0068,0.0052,0.0053,0.0053,0.0003,-0.0001,0.0044,0.0044,0.0043,0.0043,0,0.0297,0.0316,0.0329,0.0342,0.0342,0.0357,0.0338,0.0335,0.0312,0.0294,0.0275,0.0215,0.0185,0.0163,0.0131,0.012,0.0088,0.0063,0.0041,0.0062,0.0007,0.0001,0.005,0.0048,0.0047,0.0046,0,0,0.0333,0.0361,0.0365,0.0388,0.0383,0.0394,0.0406,0.041,0.043,0.0381,0.0396,0.0333,0.0295,0.0271,0.0221,0.0181,0.0144,0.0131,0.0127,0.0093,0.0046,0.0015,0.0005,0.0117,0.0116,0.0116,0.0004,0,0.0377,0.0435,0.0432,0.0484,0.0513,0.0491,0.0512,0.0508,0.049,0.0495,0.0426,0.0415,0.0339,0.0327,0.0274,0.0183,0.0134,0.0177,0.0022,0.0017,-0.0004,-0.0001,0.0031,-0.0066,-0.0002,-0.0003,-0.0004,0,0.0425,0.046,0.052,0.0569,0.058,0.0603,0.0634,0.0652,0.0641,0.0629,0.0594,0.0538,0.0477,0.0408,0.0255,0.0286,0.0176,0.0093,0.0086,0.0029,-0.0024,-0.0078,-0.008,-0.0015,-0.0014,-0.0013,-0.0012,0,0.0463,0.0523,0.0577,0.0591,0.0634,0.066,0.0685,0.0692,0.073,0.0719,0.0736,0.064,0.0609,0.0457,0.0271,0.0266,0.0095,0.0064,-0.0071,-0.0075,-0.0091,-0.0096,-0.0045,-0.0045,-0.0044,-0.0044,-0.0044,0,0.0509,0.0554,0.0604,0.0633,0.0712,0.072,0.0798,0.0809,0.0843,0.0898,0.0813,0.0825,0.0621,0.0494,0.0308,0.0099,0.0116,-0.006,-0.0103,-0.0065,-0.0065,-0.0054,-0.0053,-0.0048,-0.0047,-0.0047,-0.0046,0,0.0534,0.0564,0.0639,0.0703,0.0731,0.079,0.0884,0.0948,0.0964,0.1031,0.1034,0.0965,0.0809,0.0579,0.0336,0.0165,-0.0045,-0.0126,-0.0072,-0.0106,-0.0197,-0.0192,-0.0278,-0.028,-0.0282,-0.0283,-0.0284,0,0.055,0.0589,0.0691,0.0752,0.0785,0.0876,0.0951,0.1004,0.108,0.1116,0.1161,0.1045,0.0982,0.0616,0.0293,-0.0034,-0.007,-0.0219,-0.0224,-0.0186,-0.022,-0.0211,-0.0204,-0.0224,-0.0224,-0.0225,-0.0225,0,0.0585,0.0622,0.0691,0.0821,0.0912,0.1025,0.1133,0.1212,0.1278,0.1335,0.1386,0.1337,0.1,0.0697,0.025,0.0026,-0.0165,-0.0239,-0.0215,-0.0163,-0.0143,-0.0173,-0.0166,-0.0229,-0.0229,-0.0228,-0.0228,-0.0228,0.0617,0.0681,0.0786,0.0909,0.1021,0.117,0.1291,0.1403,0.1538,0.1632,0.1553,0.1496,0.1122,0.058,0.0191,-0.0202,-0.0186,-0.0319,-0.0315,-0.0311,-0.0278,-0.026,-0.0364,-0.0364,-0.0364,-0.0365,-0.0365,0,0.0675,0.0757,0.0872,0.104,0.1179,0.123,0.1418,0.1538,0.1712,0.1754,0.1781,0.1424,0.1067,0.0645,0.007,-0.0286,-0.0306,-0.0399,-0.0336,-0.033,-0.0325,-0.0291,-0.0382,-0.0383,-0.0384,-0.0385,0,0,0.0713,0.0839,0.0906,0.1146,0.1273,0.1482,0.1605,0.1764,0.1846,0.1896,0.1854,0.1725,0.1203,0.0785,0.0294,-0.0029,-0.0095,-0.0102,-0.0052,0.0087,0.0097,-0.0248,-0.0185,0,0,0,0,0]}],[{"header":{"parameterUnit":"m.s-1","parameterCategory":2,"la1":30.2991,"la2":30.254,"lo1":-89.0895,"lo2":-89.0444,"dy":0.0017,"dx":0.0017,"nx":28,"ny":28,"refTime":"2025-01-25T09:00:00:Z","depth":"4","parameterNumber":2,"parameterNumberName":"U-component_of_CURRENTS"},"data":[0,0,0,0,0,0,0,0,0,0,0,0,0,0,0,0,0,0,0,0,0,0,0,0,0,0,0,0,0,0,0,0,0,0,0,0,0,0,0,0,0,0,0,0,0,0,0,0,0,0,0,0,0,0,0,0,0,0,0.1834,0.1835,0,0.1931,0.1932,0.1933,0.2012,0.2013,0.2014,0.2015,0.2113,0.2115,0.2117,0,0,0,0,0,0,0,0,0,0,0,0,0,0.1721,0.1722,0.1833,0.1835,0.1836,0.1931,0.1932,0.1934,0.2012,0.2013,0.2014,0.2015,0.2113,0.2115,0.2117,0,0,0,0,0,0,0,0,0,0,0,0,0,0.1788,0.1723,0.1833,0.1887,0.1893,0.1931,0.1933,0.1934,0.2012,0.2013,0.2014,0.2015,0.2112,0.2114,0.2117,0.2107,0,0,0.2125,0.2127,0,0,0,0,0,0,0,0,0.1784,0.1792,0.1878,0.1884,0.189,0.1962,0.1929,0.1992,0.2011,0.1965,0.2015,0.2016,0.2062,0.2069,0.2083,0.2112,0.2116,0.2126,0.2127,0.2128,0.2129,0,0,0,0,0,0,0,0.178,0.1789,0.1871,0.1879,0.1887,0.1909,0.192,0.1941,0.2004,0.197,0.1976,0.1988,0.2066,0.208,0.2086,0.2118,0.2126,0.2128,0.213,0.2131,0.2271,0.2273,0,0,0,0,0,0,0.1768,0.1784,0.1868,0.1874,0.1841,0.191,0.1922,0.1937,0.2004,0.2016,0.1987,0.1991,0.2075,0.2083,0.209,0.2194,0.2128,0.2131,0.2133,0.2269,0.2271,0.2274,0,0,0,0,0,0,0.1765,0.1774,0.1864,0.1832,0.1845,0.1911,0.1926,0.1938,0.1995,0.2018,0.203,0.2036,0.2076,0.2086,0.2152,0.2194,0.2132,0.2135,0.2266,0.227,0.2273,0.2331,0,0,0,0,0,0,0.1761,0.1773,0.1796,0.1831,0.1847,0.1913,0.1925,0.1939,0.1998,0.2006,0.2063,0.2071,0.2078,0.2148,0.2155,0.2197,0.2137,0.2264,0.2268,0.2272,0.2327,0.2336,0.2344,0,0,0,0,0,0.1757,0.1779,0.1797,0.1808,0.1871,0.1914,0.1925,0.1974,0.1999,0.203,0.2075,0.2072,0.2178,0.2152,0.2159,0.2203,0.2262,0.2267,0.2271,0.2323,0.2334,0.2344,0,0,0,0,0,0,0.1744,0.179,0.181,0.1846,0.189,0.1929,0.1968,0.1995,0.2055,0.2077,0.2096,0.2108,0.2183,0.2185,0.2156,0.2257,0.222,0.2226,0.2257,0.2268,0.2276,0.2271,0.2139,0,0,0,0,0,0.1749,0.1783,0.1823,0.1859,0.1884,0.1933,0.1964,0.1998,0.2045,0.2075,0.2115,0.216,0.22,0.2229,0.2262,0.2313,0.2318,0.2348,0.2357,0.2364,0.2366,0.242,0.2433,0.2289,0.2289,0.2289,0,0,0.1754,0.1786,0.1806,0.186,0.1902,0.194,0.1957,0.2018,0.206,0.2074,0.2159,0.2195,0.2222,0.2286,0.2319,0.2298,0.2408,0.237,0.2376,0.2374,0.2426,0.244,0.2452,0.2292,0.2292,0.2291,0,0,0.177,0.1813,0.1843,0.1881,0.1947,0.1975,0.2,0.2063,0.2109,0.218,0.2207,0.2269,0.2332,0.2361,0.2379,0.2454,0.2454,0.2475,0.2514,0.2567,0.2579,0.2589,0.2611,0.2623,0.2477,0.2477,0.2477,0,0.1777,0.1817,0.186,0.1898,0.1936,0.1993,0.2034,0.2081,0.2161,0.2206,0.222,0.2342,0.2363,0.2436,0.2465,0.2473,0.2497,0.247,0.2577,0.2588,0.2597,0.2617,0.263,0.2481,0.248,0.248,0.248,0,0.1803,0.185,0.1876,0.194,0.1985,0.2035,0.2096,0.2161,0.2223,0.227,0.2378,0.2419,0.2491,0.251,0.251,0.2598,0.259,0.2582,0.2546,0.2615,0.2632,0.2644,0.2486,0.2484,0.2483,0.2482,0,0,0.178,0.1874,0.1887,0.1923,0.2015,0.2049,0.2135,0.2219,0.2284,0.2371,0.2459,0.2532,0.2575,0.2599,0.2621,0.2661,0.2744,0.2657,0.2659,0.2671,0.2855,0.2677,0.2672,0.2767,0.2769,0.2771,0.2837,0,0.1792,0.1856,0.1909,0.1981,0.2018,0.2101,0.217,0.2258,0.2344,0.2443,0.2515,0.2607,0.2603,0.2657,0.27,0.2741,0.278,0.2726,0.2793,0.2794,0.2621,0.2682,0.278,0.2845,0.2848,0.285,0.2851,0,0.1792,0.1838,0.1904,0.2001,0.2029,0.2087,0.2215,0.2286,0.2428,0.2502,0.2612,0.2678,0.2774,0.2756,0.2858,0.2832,0.2852,0.2866,0.2869,0.2688,0.2638,0.2764,0.2873,0.2871,0.2869,0.2868,0.2867,0,0.173,0.1832,0.1884,0.1918,0.2034,0.2098,0.2177,0.2314,0.2392,0.2557,0.2643,0.2757,0.2845,0.2892,0.2939,0.2918,0.3031,0.3001,0.2855,0.2843,0.2957,0.2945,0.3068,0.3068,0.3068,0.3068,0.3068,0,0.1696,0.1742,0.1867,0.1889,0.1971,0.2073,0.2176,0.2279,0.2435,0.2523,0.2677,0.2758,0.2891,0.2973,0.2979,0.2951,0.3071,0.2866,0.2852,0.2979,0.2969,0.2964,0.2952,0.307,0.307,0.3069,0.3069,0,0.1607,0.1691,0.1751,0.1885,0.194,0.1998,0.217,0.2231,0.2409,0.2536,0.2603,0.28,0.2896,0.2992,0.3076,0.2992,0.2985,0.2947,0.308,0.3073,0.2748,0.2738,0.2773,0.2767,0.2762,0.2758,0.2755,0,0.1562,0.1587,0.1726,0.1764,0.1832,0.1942,0.201,0.2198,0.2268,0.2522,0.2563,0.2754,0.2853,0.2834,0.2937,0.2945,0.2913,0.2886,0.2801,0.2737,0.2721,0.2718,0.2714,0.2747,0.2746,0.2745,0.2743,0,0.1463,0.1526,0.1571,0.1656,0.1734,0.1805,0.1929,0.1976,0.218,0.2369,0.2466,0.2541,0.2652,0.2713,0.2761,0.2753,0.2884,0.2835,0.2844,0.2763,0.2706,0.2695,0.2697,0.2727,0.2729,0.2731,0.2732,0,0.1389,0.1394,0.1458,0.1527,0.1611,0.1643,0.1729,0.1819,0.1924,0.2216,0.2232,0.2434,0.2612,0.2614,0.2643,0.2642,0.259,0.2487,0.2513,0.2533,0.2424,0.2315,0.2206,0,0,0,0,0,0.13,0.1289,0.1327,0.1374,0.1449,0.1503,0.1656,0.1746,0.1962,0.1968,0.2101,0.2189,0.2273,0.2376,0.2325,0.2526,0.2591,0.2454,0.2483,0.2635,0.2654,0.2549,0,0,0,0,0,0,0.1231,0.125,0.1267,0.1233,0.1243,0.1302,0.1396,0.154,0.1563,0.1798,0.1858,0.2034,0.215,0.227,0.2273,0.2303,0.227,0.2581,0.2575,0.2624,0.2641,0.2657,0.2556,0,0,0,0,0]},{"header":{"parameterUnit":"m.s-1","parameterCategory":2,"la1":30.2991,"la2":30.254,"lo1":-89.0895,"lo2":-89.0444,"dy":0.0017,"dx":0.0017,"nx":28,"ny":28,"refTime":"2025-01-25T09:00:00:Z","depth":"4","parameterNumber":3,"parameterNumberName":"V-component_of_CURRENTS"},"data":[0,0,0,0,0,0,0,0,0,0,0,0,0,0,0,0,0,0,0,0,0,0,0,0,0,0,0,0,0,0,0,0,0,0,0,0,0,0,0,0,0,0,0,0,0,0,0,0,0,0,0,0,0,0,0,0,0,0,0.014,0.014,0,0.0106,0.0106,0.0105,0.0081,0.0081,0.0081,0.008,0.0029,0.0027,0.0026,0,0,0,0,0,0,0,0,0,0,0,0,0,0.0137,0.0137,0.014,0.014,0.0139,0.0106,0.0106,0.0105,0.0081,0.0081,0.0081,0.008,0.0029,0.0028,0.0026,0,0,0,0,0,0,0,0,0,0,0,0,0,0.0123,0.0137,0.014,0.0124,0.0122,0.0106,0.0106,0.0105,0.0081,0.0081,0.008,0.008,0.003,0.0028,0.0026,0.0017,0,0,0.002,0.0019,0,0,0,0,0,0,0,0,0.0124,0.0123,0.0127,0.0125,0.0123,0.0098,0.0086,0.0075,0.0081,0.0095,0.008,0.008,0.0051,0.0047,0.004,0.0015,0.0013,0.002,0.0019,0.0018,0.0017,0,0,0,0,0,0,0,0.0125,0.0124,0.0125,0.0126,0.0124,0.0102,0.0101,0.0083,0.0073,0.0094,0.0093,0.0091,0.005,0.0042,0.0039,0.0012,0.002,0.0018,0.0017,0.0016,-0.003,-0.003,0,0,0,0,0,0,0.0134,0.0125,0.0127,0.0125,0.0124,0.0103,0.0101,0.0106,0.0074,0.0069,0.0091,0.009,0.0045,0.0041,0.0037,0.0036,0.0018,0.0016,0.0015,-0.003,-0.003,-0.003,0,0,0,0,0,0,0.0134,0.0135,0.0128,0.0124,0.0122,0.0104,0.0109,0.0105,0.0101,0.0072,0.0067,0.0091,0.0045,0.004,0.0026,0.0033,0.0015,0.0013,-0.003,-0.003,-0.003,0.0026,0,0,0,0,0,0,0.0134,0.0135,0.0142,0.0126,0.0123,0.0126,0.0109,0.0105,0.01,0.0098,0.007,0.0065,0.0045,0.0029,0.0024,0.003,0.0012,-0.003,-0.003,-0.003,0.0024,0.0028,0.0031,0,0,0,0,0,0.0134,0.0149,0.0143,0.0143,0.0133,0.0126,0.0123,0.0108,0.0101,0.0102,0.0083,0.0066,0.0024,0.0028,0.0022,0.0027,-0.003,-0.003,-0.003,0.0023,0.0027,0.0031,0,0,0,0,0,0,0.0151,0.0147,0.014,0.0153,0.0142,0.0123,0.0124,0.0113,0.0099,0.0098,0.0069,0.0062,0.0051,0.003,0.0034,0.0011,-0.0007,-0.0008,0.0035,0.0039,0.0042,0.0058,0.001,0,0,0,0,0,0.0159,0.0168,0.0156,0.0165,0.0163,0.0144,0.0139,0.013,0.0115,0.0109,0.0089,0.0065,0.0045,0.0036,0.0014,0.0006,-0.0031,0.0002,0.0006,0.0009,0.0016,-0.0036,-0.0036,-0.0031,-0.0031,-0.0031,0,0,0.0168,0.0166,0.0172,0.0169,0.016,0.0166,0.0141,0.0141,0.0146,0.0105,0.0106,0.0077,0.0044,0.0034,0.0026,0.0019,-0.0014,0.0009,0.0012,0.0018,-0.0036,-0.0037,-0.0037,-0.0031,-0.0031,-0.0031,0,0,0.0191,0.019,0.0205,0.0201,0.0194,0.0185,0.0188,0.0172,0.0165,0.0159,0.013,0.0107,0.008,0.0057,0.0042,0.005,0.0004,0.004,0.0072,0.0022,0.0021,0.002,-0.0033,-0.0039,0.0043,0.0043,0.0043,0,0.0202,0.022,0.0207,0.0219,0.0224,0.0198,0.0215,0.0205,0.0186,0.0183,0.0167,0.0118,0.0091,0.0075,0.0077,0.0059,0.002,0.0064,0.0027,0.0025,0.0023,-0.0031,-0.0039,0.0046,0.0045,0.0045,0.0045,0,0.0233,0.0249,0.0259,0.0269,0.027,0.0281,0.0268,0.0267,0.0253,0.0236,0.0216,0.0171,0.0143,0.0127,0.0107,0.0082,0.0055,0.0037,0.0021,0.0026,-0.0032,-0.0041,0.0049,0.0048,0.0048,0.0047,0,0,0.0255,0.0278,0.0282,0.03,0.03,0.0308,0.0317,0.0317,0.0324,0.029,0.0287,0.0245,0.0214,0.0194,0.0157,0.0114,0.0063,0.0077,0.0073,0.0031,-0.0055,-0.0048,-0.0057,0.0038,0.0037,0.0036,-0.0092,0,0.0284,0.0325,0.0326,0.0366,0.0387,0.0376,0.0389,0.0383,0.0364,0.0352,0.0299,0.028,0.0241,0.0226,0.0178,0.009,0.0044,0.0099,-0.006,-0.0065,-0.0053,-0.0066,0.0032,-0.0099,-0.0101,-0.0102,-0.0103,0,0.0312,0.0338,0.0384,0.0424,0.0432,0.0452,0.0469,0.0478,0.0451,0.0432,0.0396,0.0349,0.0289,0.0253,0.0108,0.0144,0.0056,-0.0017,-0.0024,-0.004,-0.0073,-0.0106,-0.012,-0.0119,-0.0117,-0.0116,-0.0115,0,0.0332,0.038,0.0422,0.0435,0.0469,0.0492,0.0512,0.0503,0.0521,0.0483,0.0478,0.0391,0.0351,0.0228,0.009,0.0092,-0.0078,-0.0099,-0.0177,-0.0178,-0.0171,-0.0169,-0.0198,-0.0198,-0.0198,-0.0198,-0.0197,0,0.0357,0.0392,0.044,0.0463,0.0523,0.0532,0.0582,0.058,0.0582,0.0607,0.0526,0.0514,0.0343,0.0233,0.0097,-0.0065,-0.0077,-0.0173,-0.0209,-0.0146,-0.014,-0.0179,-0.0174,-0.0202,-0.0201,-0.02,-0.02,0,0.0365,0.0393,0.0451,0.0508,0.0534,0.0576,0.0648,0.0682,0.067,0.0695,0.0689,0.0594,0.0449,0.0273,0.0063,-0.0045,-0.0208,-0.0259,-0.018,-0.0209,-0.0282,-0.0273,-0.0371,-0.0372,-0.0373,-0.0373,-0.0374,0,0.037,0.0401,0.0488,0.0537,0.057,0.0641,0.0696,0.0722,0.0765,0.0751,0.0768,0.0643,0.0559,0.0272,0.0074,-0.0198,-0.0226,-0.032,-0.0299,-0.0274,-0.0299,-0.029,-0.0281,-0.0375,-0.0375,-0.0375,-0.0375,0,0.0388,0.0421,0.0476,0.0581,0.0655,0.074,0.0822,0.0859,0.0889,0.0872,0.0838,0.069,0.0524,0.0292,0.008,-0.0111,-0.0269,-0.0328,-0.0328,-0.0309,-0.0279,-0.0301,-0.0292,-0.0378,-0.0377,-0.0377,-0.0377,0,0.0412,0.0455,0.0541,0.0631,0.0729,0.0826,0.0861,0.092,0.0955,0.0938,0.0922,0.0738,0.0623,0.0337,0.0145,-0.0049,-0.01,-0.0162,-0.0171,-0.0172,-0.0073,-0.0003,-0.0047,0,0,0,0,0,0.0438,0.05,0.0589,0.0699,0.0795,0.0857,0.0948,0.0975,0.0996,0.0987,0.096,0.081,0.0522,0.0395,0.0205,0.0118,-0.0143,-0.0113,-0.0221,-0.039,-0.0387,-0.0304,0,0,0,0,0,0,0.0463,0.055,0.0596,0.0742,0.0823,0.094,0.1001,0.1014,0.1014,0.0995,0.085,0.076,0.0483,0.0633,0.0201,0.0139,0.0044,-0.0254,-0.0258,-0.0391,-0.0389,-0.0387,-0.0301,0,0,0,0,0]}]]